Location: Bucaritos
(10.0779°N, 67.0369°W)
Time: 17:11:09
(UTC+00:00)

Cosmos 1943 - Pass Details

Date: 27 June 2022
Orbit: 834 x 848 km, 71.0° (Epoch: 09 August)

Event Time Altitude Azimuth Distance (km) Brightness Sun altitude
Rises 23:25:04 0° 185° (S) 3,400 6.1 -8.1°
Reaches altitude 10° 23:27:35 10° 180° (S) 2,464 5.4 -8.7°
Maximum altitude 23:33:04 53° 105° (ESE) 1,031 3.3 -9.9°
Drops below altitude 10° 23:38:32 10° 29° (NNE) 2,456 5.6 -11.1°
Sets 23:41:02 0° 25° (NNE) 3,388 6.4 -11.6°
